| time (UTC) | temp F | wind direction | speed MPH | gust MPH | rain 1hr in | rain 24hr in | rain mn in | humidity % | barometer mb |
| 20260503211515 | 19 | 103 | 26.0 | 32.0 | 0.00 | 3.75 | 0.00 | 88 | 946.8 |
| 20260503210015 | 18 | 99 | 28.0 | 38.0 | 0.00 | 3.75 | 0.00 | 91 | 946.5 |
| 20260503205015 | 17 | 100 | 25.0 | 32.0 | 0.00 | 3.75 | 3.75 | 92 | 946.9 |
| 20260503204015 | 17 | 111 | 20.0 | 27.0 | 0.00 | 3.75 | 3.75 | 94 | 947.0 |
| 20260503203015 | 16 | 109 | 15.0 | 24.0 | 0.00 | 3.75 | 3.75 | 96 | 947.5 |
| 20260503202015 | 16 | 88 | 11.0 | 24.0 | 0.24 | 3.75 | 3.75 | 98 | 947.5 |
| 20260503201015 | 17 | 103 | 5.0 | 11.0 | 0.24 | 3.75 | 3.75 | 99 | 947.6 |
| 20260503200035 | 17 | 48 | 3.0 | 4.0 | 0.24 | 3.75 | 3.75 | 100 | 947.6 |
| 20260503195035 | 17 | 326 | 4.0 | 8.0 | 0.24 | 3.75 | 3.75 | 100 | 947.5 |
| 20260503194015 | 17 | 308 | 3.0 | 6.0 | 0.24 | 3.75 | 3.75 | 100 | 947.5 |
| 20260503193036 | 17 | 348 | 2.0 | 4.0 | 0.24 | 3.75 | 3.75 | 100 | 947.5 |
| 20260503192015 | 17 | 97 | 3.0 | 6.0 | 0.00 | 3.51 | 3.51 | 99 | 947.4 |
| 20260503191035 | 18 | 129 | 4.0 | 5.0 | 0.00 | 3.51 | 3.51 | 98 | 947.4 |
| 20260503190016 | 18 | 57 | 2.0 | 5.0 | 0.00 | 3.51 | 3.51 | 99 | 947.5 |
| 20260503185056 | 18 | 57 | 5.0 | 7.0 | 0.00 | 3.51 | 3.51 | 100 | 947.5 |
| 20260503184015 | 18 | 22 | 3.0 | 6.0 | 0.00 | 3.51 | 3.51 | 100 | 947.3 |
| 20260503183035 | 18 | 31 | 4.0 | 7.0 | 0.00 | 3.51 | 3.51 | 100 | 947.2 |
| 20260503182015 | 18 | 31 | 6.0 | 11.0 | 0.00 | 3.51 | 3.51 | 99 | 947.2 |
| 20260503181016 | 19 | 32 | 3.0 | 6.0 | 0.00 | 3.51 | 3.51 | 100 | 947.3 |
| 20260503180015 | 19 | 56 | 4.0 | 8.0 | 0.00 | 3.51 | 3.51 | 100 | 947.2 |
| 20260503175015 | 19 | 73 | 6.0 | 8.0 | 0.00 | 3.51 | 3.51 | 99 | 947.2 |
| 20260503174015 | 19 | 44 | 4.0 | 7.0 | 0.00 | 3.51 | 3.51 | 100 | 947.3 |
| 20260503173015 | 19 | 0 | 3.0 | 8.0 | 0.00 | 3.51 | 3.51 | 100 | 947.2 |
| 20260503172015 | 19 | 4 | 4.0 | 10.0 | 0.00 | 3.51 | 3.51 | 100 | 947.2 |
| 20260503171036 | 20 | 12 | 6.0 | 11.0 | 0.00 | 3.51 | 3.51 | 100 | 947.1 |
| 20260503131015 | 20 | 345 | 6.0 | 13.0 | 0.24 | 3.50 | 3.49 | 99 | 947.5 |
| 20260503081016 | 16 | 84 | 11.0 | 16.0 | 2.56 | 3.25 | 3.05 | 99 | 946.2 |
| 20260503072015 | 15 | 88 | 15.0 | 22.0 | 2.56 | 3.25 | 3.05 | 98 | 945.5 |
| 20260503071015 | 15 | 86 | 15.0 | 23.0 | 0.00 | 0.69 | 0.49 | 98 | 945.5 |
| 20260503055015 | 13 | 65 | 17.0 | 27.0 | 0.00 | 3.24 | 0.49 | 98 | 944.9 |
| 20260503054015 | 14 | 57 | 15.0 | 21.0 | 0.00 | 3.25 | 0.49 | 98 | 944.8 |
| 20260503053015 | 14 | 51 | 13.0 | 20.0 | 0.00 | 3.25 | 0.49 | 98 | 944.8 |
| 20260503052015 | 14 | 56 | 14.0 | 21.0 | 0.00 | 3.25 | 0.49 | 98 | 944.8 |
| 20260503051015 | 14 | 17 | 9.0 | 17.0 | 0.00 | 3.25 | 0.49 | 98 | 944.7 |
| 20260503050015 | 13 | 39 | 9.0 | 18.0 | 0.00 | 3.25 | 0.49 | 98 | 944.7 |
| 20260503045015 | 13 | 86 | 14.0 | 21.0 | 0.00 | 3.25 | 0.49 | 97 | 944.7 |
| 20260503044015 | 13 | 93 | 19.0 | 26.0 | 0.00 | 3.25 | 0.49 | 96 | 944.4 |
| 20260503043114 | 13 | 96 | 21.0 | 28.0 | 0.00 | 3.25 | 0.49 | 97 | 944.3 |
| 20260503042015 | 13 | 74 | 14.0 | 22.0 | 0.00 | 3.25 | 0.49 | 97 | 944.6 |
| 20260503041016 | 13 | 76 | 12.0 | 20.0 | 0.00 | 3.25 | 0.49 | 98 | 944.7 |
| 20260503040015 | 14 | 65 | 13.0 | 22.0 | 0.00 | 3.25 | 0.49 | 98 | 944.6 |
| 20260503035016 | 14 | 83 | 13.0 | 20.0 | 0.24 | 3.25 | 0.49 | 97 | 944.4 |
| 20260503034015 | 13 | 92 | 18.0 | 23.0 | 0.24 | 3.25 | 0.49 | 97 | 944.2 |
| 20260503033015 | 13 | 84 | 17.0 | 24.0 | 0.24 | 3.25 | 0.49 | 97 | 944.2 |
| 20260503032015 | 13 | 93 | 20.0 | 26.0 | 0.24 | 3.25 | 0.49 | 97 | 944.2 |
| 20260503031015 | 13 | 101 | 23.0 | 33.0 | 0.24 | 3.25 | 0.49 | 97 | 944.3 |
| 20260503030015 | 13 | 90 | 19.0 | 26.0 | 0.24 | 3.25 | 0.49 | 97 | 944.3 |
| 20260503025035 | 13 | 94 | 19.0 | 27.0 | 0.00 | 3.01 | 0.25 | 97 | 944.4 |
| 20260503024036 | 13 | 82 | 18.0 | 26.0 | 0.00 | 3.01 | 0.25 | 97 | 944.5 |
| 20260503023016 | 13 | 86 | 17.0 | 25.0 | 0.00 | 3.01 | 0.25 | 97 | 944.4 |
| 20260503022016 | 14 | 86 | 19.0 | 26.0 | 0.00 | 3.01 | 0.25 | 97 | 944.5 |
| 20260503021015 | 14 | 68 | 15.0 | 26.0 | 0.00 | 3.01 | 0.25 | 97 | 944.6 |
| 20260503020015 | 15 | 63 | 11.0 | 21.0 | 0.00 | 3.25 | 0.25 | 98 | 944.8 |
| 20260503015014 | 15 | 49 | 13.0 | 23.0 | 0.00 | 3.25 | 0.25 | 98 | 944.7 |
| 20260503014015 | 16 | 42 | 10.0 | 19.0 | 0.00 | 3.25 | 0.25 | 99 | 944.8 |
| 20260503013036 | 16 | 44 | 7.0 | 16.0 | 0.00 | 3.25 | 0.25 | 99 | 944.8 |
| 20260503012016 | 17 | 19 | 6.0 | 12.0 | 0.00 | 3.25 | 0.25 | 100 | 944.9 |
| 20260503011015 | 17 | 39 | 8.0 | 17.0 | 0.00 | 3.25 | 0.25 | 100 | 944.9 |
| 20260503010015 | 17 | 45 | 8.0 | 17.0 | 0.00 | 3.25 | 0.25 | 100 | 944.9 |
| 20260503005015 | 17 | 47 | 10.0 | 17.0 | 0.00 | 3.25 | 0.25 | 100 | 944.9 |
| 20260503004015 | 17 | 49 | 10.0 | 18.0 | 0.00 | 3.48 | 0.25 | 100 | 945.1 |
| 20260503003015 | 17 | 70 | 13.0 | 20.0 | 0.00 | 3.48 | 0.25 | 100 | 945.0 |
| 20260503002015 | 17 | 80 | 8.0 | 15.0 | 0.00 | 3.48 | 0.25 | 100 | 945.0 |
| 20260503001015 | 18 | 66 | 12.0 | 21.0 | 0.00 | 3.48 | 0.25 | 100 | 945.2 |
| 20260503000015 | 18 | 66 | 12.0 | 19.0 | 0.00 | 3.48 | 0.25 | 100 | 945.1 |
| 20260502235015 | 18 | 71 | 9.0 | 14.0 | 0.00 | 3.48 | 0.25 | 100 | 945.3 |
| 20260502234015 | 18 | 56 | 8.0 | 14.0 | 0.00 | 3.48 | 0.25 | 100 | 945.4 |
| 20260502233015 | 18 | 59 | 8.0 | 15.0 | 0.00 | 3.48 | 0.25 | 100 | 945.5 |
| 20260502232015 | 18 | 63 | 10.0 | 16.0 | 0.00 | 3.48 | 0.25 | 100 | 945.8 |
| 20260502231034 | 18 | 65 | 10.0 | 14.0 | 0.00 | 3.48 | 0.25 | 100 | 945.9 |
| 20260502230015 | 18 | 70 | 11.0 | 17.0 | 0.01 | 3.48 | 0.25 | 100 | 945.9 |
| 20260502225016 | 18 | 79 | 12.0 | 19.0 | 0.25 | 5.66 | 0.25 | 100 | 945.8 |
| 20260502224015 | 19 | 142 | 7.0 | 13.0 | 0.25 | 5.66 | 0.25 | 100 | 945.9 |
| 20260502223015 | 19 | 71 | 11.0 | 16.0 | 0.25 | 5.66 | 0.25 | 100 | 946.3 |
| 20260502222015 | 19 | 58 | 9.0 | 15.0 | 0.25 | 5.66 | 0.25 | 100 | 946.3 |
| 20260502221015 | 19 | 70 | 9.0 | 16.0 | 0.25 | 5.66 | 0.25 | 100 | 946.4 |
| 20260502220015 | 19 | 58 | 10.0 | 17.0 | 0.24 | 5.65 | 0.24 | 100 | 946.4 |
| 20260502215015 | 19 | 45 | 8.0 | 16.0 | 0.00 | 5.41 | 0.00 | 100 | 946.6 |
| 20260502214015 | 19 | 44 | 9.0 | 128.0 | 0.00 | 5.41 | 0.00 | 100 | 946.6 |
| 20260502213015 | 19 | 63 | 9.0 | 15.0 | 0.00 | 5.41 | 0.00 | 100 | 946.6 |